Location: State Line Observation Field
(36.5320°N, 77.5360°W)
Time: 19:18:08
(UTC-05:00)

LightSail 2 - Pass Details

Date: 16 November 2019
Orbit: 696 x 730 km, 24.0° (Epoch: 14 December)

Event Time Altitude Azimuth Distance (km) Brightness Sun altitude
Exits shadow 05:34:26 - 231° (SW) 2,318 7.4 -15.0°
Reaches altitude 10° 05:34:57 10° 227° (SW) 2,209 7.4 -14.9°
Maximum altitude 05:37:52 15° 193° (SSW) 1,886 7.3 -14.3°
Drops below altitude 10° 05:40:48 10° 158° (SSE) 2,211 8.2 -13.8°
Sets 05:44:14 0° 136° (SE) 3,132 9.5 -13.1°
